Time,TemperatureF,DewpointF,PressureIn,WindDirection,WindDirectionDegrees,WindSpeedMPH,WindSpeedGustMPH,Humidity,HourlyPrecipIn,Conditions,Clouds,dailyrainin,SoftwareType,DateUTC
2013-03-07 00:07:00,43.4,20.0,29.82,SSE,167,0.0,2.0,40,0.00,,,0.00,weatherlink.com 1.10,2013-03-07 07:07:00,
2013-03-07 00:22:00,43.6,20.0,29.82,SSE,167,0.0,1.0,39,0.00,,,0.00,weatherlink.com 1.10,2013-03-07 07:22:00,
2013-03-07 00:37:00,44.3,20.0,29.82,SSE,167,1.0,2.0,38,0.00,,,0.00,weatherlink.com 1.10,2013-03-07 07:37:00,
2013-03-07 00:52:00,44.0,19.0,29.83,SSE,167,0.0,2.0,37,0.00,,,0.00,weatherlink.com 1.10,2013-03-07 07:52:00,
2013-03-07 01:07:00,43.2,20.0,29.83,SSE,167,0.0,0.0,39,0.00,,,0.00,weatherlink.com 1.10,2013-03-07 08:07:00,
2013-03-07 01:22:00,43.0,19.0,29.83,SSE,167,0.0,1.0,39,0.00,,,0.00,weatherlink.com 1.10,2013-03-07 08:22:00,
2013-03-07 01:37:00,41.9,19.0,29.83,SSE,167,0.0,1.0,40,0.00,,,0.00,weatherlink.com 1.10,2013-03-07 08:37:00,
2013-03-07 01:52:00,41.1,19.0,29.83,SSE,167,0.0,0.0,41,0.00,,,0.00,weatherlink.com 1.10,2013-03-07 08:52:00,
2013-03-07 02:07:00,40.7,19.0,29.83,SSE,167,0.0,0.0,41,0.00,,,0.00,weatherlink.com 1.10,2013-03-07 09:07:00,
2013-03-07 02:22:00,40.4,18.0,29.82,SSE,167,0.0,0.0,41,0.00,,,0.00,weatherlink.com 1.10,2013-03-07 09:22:00,
2013-03-07 02:37:00,39.9,19.0,29.82,South,173,0.0,3.0,43,0.00,,,0.00,weatherlink.com 1.10,2013-03-07 09:37:00,
2013-03-07 02:53:00,39.7,18.0,29.82,South,173,0.0,2.0,42,0.00,,,0.00,weatherlink.com 1.10,2013-03-07 09:53:00,
2013-03-07 03:08:00,39.5,18.0,29.82,South,173,0.0,1.0,42,0.00,,,0.00,weatherlink.com 1.10,2013-03-07 10:08:00,
2013-03-07 03:23:00,38.7,18.0,29.82,South,173,0.0,0.0,43,0.00,,,0.00,weatherlink.com 1.10,2013-03-07 10:23:00,
2013-03-07 03:38:00,39.0,17.0,29.83,South,173,1.0,2.0,41,0.00,,,0.00,weatherlink.com 1.10,2013-03-07 10:38:00,
2013-03-07 03:53:00,38.7,17.0,29.83,South,173,0.0,0.0,42,0.00,,,0.00,weatherlink.com 1.10,2013-03-07 10:53:00,
2013-03-07 04:08:00,38.0,18.0,29.83,South,173,0.0,0.0,44,0.00,,,0.00,weatherlink.com 1.10,2013-03-07 11:08:00,
2013-03-07 04:23:00,37.2,18.0,29.83,South,173,0.0,0.0,45,0.00,,,0.00,weatherlink.com 1.10,2013-03-07 11:23:00,
2013-03-07 04:38:00,37.1,17.0,29.84,South,173,0.0,1.0,45,0.00,,,0.00,weatherlink.com 1.10,2013-03-07 11:38:00,
2013-03-07 04:53:00,37.1,17.0,29.84,South,173,0.0,0.0,44,0.00,,,0.00,weatherlink.com 1.10,2013-03-07 11:53:00,
2013-03-07 05:08:00,36.7,17.0,29.84,South,173,0.0,0.0,44,0.00,,,0.00,weatherlink.com 1.10,2013-03-07 12:08:00,
2013-03-07 05:23:00,36.6,17.0,29.85,South,173,0.0,0.0,45,0.00,,,0.00,weatherlink.com 1.10,2013-03-07 12:23:00,
2013-03-07 05:38:00,36.5,17.0,29.85,South,173,0.0,2.0,46,0.00,,,0.00,weatherlink.com 1.10,2013-03-07 12:38:00,
2013-03-07 05:53:00,36.0,18.0,29.85,South,173,0.0,1.0,48,0.00,,,0.00,weatherlink.com 1.10,2013-03-07 12:53:00,
2013-03-07 06:08:00,35.7,18.0,29.86,NW,308,2.0,3.0,48,0.00,,,0.00,weatherlink.com 1.10,2013-03-07 13:08:00,
2013-03-07 06:23:00,36.0,19.0,29.86,NNW,348,0.0,3.0,51,0.00,,,0.00,weatherlink.com 1.10,2013-03-07 13:23:00,
2013-03-07 06:38:00,36.2,19.0,29.87,NNW,338,0.0,4.0,49,0.00,,,0.00,weatherlink.com 1.10,2013-03-07 13:38:00,
2013-03-07 06:53:00,36.1,19.0,29.87,NNW,330,0.0,3.0,50,0.00,,,0.00,weatherlink.com 1.10,2013-03-07 13:53:00,
2013-03-07 07:08:00,37.5,19.0,29.88,North,360,2.0,3.0,47,0.00,,,0.00,weatherlink.com 1.10,2013-03-07 14:08:00,
2013-03-07 07:23:00,39.0,19.0,29.88,North,351,0.0,1.0,45,0.00,,,0.00,weatherlink.com 1.10,2013-03-07 14:23:00,
2013-03-07 07:38:00,41.9,19.0,29.89,North,355,0.0,1.0,40,0.00,,,0.00,weatherlink.com 1.10,2013-03-07 14:38:00,
2013-03-07 07:53:00,44.2,19.0,29.89,North,351,3.0,3.0,37,0.00,,,0.00,weatherlink.com 1.10,2013-03-07 14:53:00,
2013-03-07 08:08:00,46.0,19.0,29.89,WNW,288,0.0,4.0,34,0.00,,,0.00,weatherlink.com 1.10,2013-03-07 15:08:00,
2013-03-07 08:24:00,46.7,20.0,29.90,NNW,331,1.0,4.0,34,0.00,,,0.00,weatherlink.com 1.10,2013-03-07 15:24:00,
2013-03-07 08:38:00,47.6,19.0,29.90,NW,320,1.0,3.0,32,0.00,,,0.00,weatherlink.com 1.10,2013-03-07 15:38:00,
2013-03-07 08:54:00,48.8,19.0,29.90,NW,310,3.0,4.0,31,0.00,,,0.00,weatherlink.com 1.10,2013-03-07 15:54:00,
2013-03-07 09:09:00,50.5,19.0,29.90,NW,326,1.0,3.0,29,0.00,,,0.00,weatherlink.com 1.10,2013-03-07 16:09:00,
2013-03-07 09:24:00,52.3,18.0,29.90,NNW,327,1.0,3.0,26,0.00,,,0.00,weatherlink.com 1.10,2013-03-07 16:24:00,
2013-03-07 09:39:00,54.3,18.0,29.89,NNW,327,0.0,3.0,24,0.00,,,0.00,weatherlink.com 1.10,2013-03-07 16:39:00,
2013-03-07 09:54:00,55.9,17.0,29.89,NNW,330,1.0,3.0,22,0.00,,,0.00,weatherlink.com 1.10,2013-03-07 16:54:00,
2013-03-07 10:09:00,57.7,17.0,29.89,NW,325,0.0,3.0,20,0.00,,,0.00,weatherlink.com 1.10,2013-03-07 17:09:00,
2013-03-07 10:24:00,59.7,17.0,29.88,NNE,27,0.0,3.0,19,0.00,,,0.00,weatherlink.com 1.10,2013-03-07 17:24:00,
2013-03-07 10:39:00,60.7,17.0,29.88,WNW,283,2.0,5.0,18,0.00,,,0.00,weatherlink.com 1.10,2013-03-07 17:39:00,
2013-03-07 10:54:00,61.3,17.0,29.88,SW,225,0.0,5.0,18,0.00,,,0.00,weatherlink.com 1.10,2013-03-07 17:54:00,
2013-03-07 11:09:00,62.9,19.0,29.87,SSE,163,2.0,4.0,18,0.00,,,0.00,weatherlink.com 1.10,2013-03-07 18:09:00,
2013-03-07 11:24:00,64.1,20.0,29.87,South,184,2.0,4.0,18,0.00,,,0.00,weatherlink.com 1.10,2013-03-07 18:24:00,
2013-03-07 11:39:00,63.3,18.0,29.86,SW,227,2.0,7.0,17,0.00,,,0.00,weatherlink.com 1.10,2013-03-07 18:39:00,
2013-03-07 11:54:00,63.5,18.0,29.85,WSW,247,1.0,7.0,17,0.00,,,0.00,weatherlink.com 1.10,2013-03-07 18:54:00,
2013-03-07 12:09:00,65.4,18.0,29.84,SSE,157,1.0,6.0,16,0.00,,,0.00,weatherlink.com 1.10,2013-03-07 19:09:00,
2013-03-07 12:24:00,65.6,18.0,29.84,SSW,194,1.0,9.0,16,0.00,,,0.00,weatherlink.com 1.10,2013-03-07 19:24:00,
2013-03-07 12:39:00,67.2,18.0,29.83,SW,214,8.0,9.0,15,0.00,,,0.00,weatherlink.com 1.10,2013-03-07 19:39:00,
2013-03-07 12:54:00,66.4,16.0,29.81,WSW,257,4.0,12.0,14,0.00,,,0.00,weatherlink.com 1.10,2013-03-07 19:54:00,
2013-03-07 13:09:00,66.5,17.0,29.80,West,276,0.0,13.0,15,0.00,,,0.00,weatherlink.com 1.10,2013-03-07 20:09:00,
2013-03-07 13:24:00,67.5,16.0,29.78,SW,222,8.0,9.0,14,0.00,,,0.00,weatherlink.com 1.10,2013-03-07 20:24:00,
2013-03-07 13:39:00,67.6,17.0,29.78,South,182,6.0,12.0,14,0.00,,,0.00,weatherlink.com 1.10,2013-03-07 20:39:00,
2013-03-07 13:54:00,68.6,16.0,29.77,WSW,239,5.0,12.0,13,0.00,,,0.00,weatherlink.com 1.10,2013-03-07 20:54:00,
2013-03-07 14:09:00,68.8,16.0,29.76,SSW,198,7.0,13.0,13,0.00,,,0.00,weatherlink.com 1.10,2013-03-07 21:09:00,
2013-03-07 14:25:00,69.3,16.0,29.75,South,176,7.0,12.0,13,0.00,,,0.00,weatherlink.com 1.10,2013-03-07 21:25:00,
2013-03-07 14:40:00,69.4,16.0,29.74,South,184,15.0,19.0,13,0.00,,,0.00,weatherlink.com 1.10,2013-03-07 21:40:00,
2013-03-07 14:55:00,69.9,17.0,29.74,South,186,3.0,12.0,13,0.00,,,0.00,weatherlink.com 1.10,2013-03-07 21:55:00,
2013-03-07 15:10:00,70.0,15.0,29.74,SSW,211,3.0,8.0,12,0.00,,,0.00,weatherlink.com 1.10,2013-03-07 22:10:00,
2013-03-07 15:25:00,70.2,17.0,29.73,SSE,152,5.0,11.0,13,0.00,,,0.00,weatherlink.com 1.10,2013-03-07 22:25:00,
2013-03-07 15:40:00,70.8,17.0,29.73,SE,134,5.0,12.0,13,0.00,,,0.00,weatherlink.com 1.10,2013-03-07 22:40:00,
2013-03-07 15:55:00,70.5,17.0,29.72,SSE,162,6.0,12.0,13,0.00,,,0.00,weatherlink.com 1.10,2013-03-07 22:55:00,
2013-03-07 16:10:00,70.8,17.0,29.71,South,184,1.0,6.0,13,0.00,,,0.00,weatherlink.com 1.10,2013-03-07 23:10:00,
2013-03-07 16:25:00,70.7,17.0,29.70,ESE,119,5.0,10.0,13,0.00,,,0.00,weatherlink.com 1.10,2013-03-07 23:25:00,
2013-03-07 16:40:00,70.3,15.0,29.70,SSW,193,4.0,8.0,12,0.00,,,0.00,weatherlink.com 1.10,2013-03-07 23:40:00,
2013-03-07 16:55:00,70.4,15.0,29.70,South,178,7.0,8.0,12,0.00,,,0.00,weatherlink.com 1.10,2013-03-07 23:55:00,
2013-03-07 17:10:00,69.4,14.0,29.69,SW,215,10.0,15.0,12,0.00,,,0.00,weatherlink.com 1.10,2013-03-08 00:10:00,
2013-03-07 17:25:00,68.9,14.0,29.69,South,183,2.0,13.0,12,0.00,,,0.00,weatherlink.com 1.10,2013-03-08 00:25:00,
2013-03-07 17:40:00,67.9,13.0,29.69,South,181,3.0,9.0,12,0.00,,,0.00,weatherlink.com 1.10,2013-03-08 00:40:00,
2013-03-07 17:55:00,66.7,12.0,29.69,South,180,2.0,7.0,12,0.00,,,0.00,weatherlink.com 1.10,2013-03-08 00:55:00,
2013-03-07 18:10:00,65.3,13.0,29.69,South,169,3.0,4.0,13,0.00,,,0.00,weatherlink.com 1.10,2013-03-08 01:10:00,
2013-03-07 18:25:00,63.9,14.0,29.69,SE,143,2.0,4.0,14,0.00,,,0.00,weatherlink.com 1.10,2013-03-08 01:25:00,
2013-03-07 18:55:00,61.8,13.0,29.70,SSE,158,5.0,7.0,15,0.00,,,0.00,weatherlink.com 1.10,2013-03-08 01:55:00,
2013-03-07 19:10:00,61.2,13.0,29.71,SSE,147,5.0,7.0,15,0.00,,,0.00,weatherlink.com 1.10,2013-03-08 02:10:00,
2013-03-07 19:25:00,61.1,13.0,29.71,SSE,147,4.0,10.0,15,0.00,,,0.00,weatherlink.com 1.10,2013-03-08 02:25:00,
2013-03-07 19:40:00,61.9,14.0,29.71,SE,145,10.0,12.0,15,0.00,,,0.00,weatherlink.com 1.10,2013-03-08 02:40:00,
2013-03-07 20:10:00,60.8,14.0,29.71,SE,145,7.0,12.0,16,0.00,,,0.00,weatherlink.com 1.10,2013-03-08 03:10:00,
2013-03-07 20:25:00,60.4,15.0,29.71,SSE,149,6.0,13.0,17,0.00,,,0.00,weatherlink.com 1.10,2013-03-08 03:25:00,
2013-03-07 20:40:00,59.8,15.0,29.71,SE,146,5.0,11.0,17,0.00,,,0.00,weatherlink.com 1.10,2013-03-08 03:40:00,
2013-03-07 20:55:00,59.2,15.0,29.72,SSE,163,7.0,10.0,18,0.00,,,0.00,weatherlink.com 1.10,2013-03-08 03:55:00,
2013-03-07 21:10:00,59.1,15.0,29.72,South,185,9.0,14.0,18,0.00,,,0.00,weatherlink.com 1.10,2013-03-08 04:10:00,
2013-03-07 21:25:00,58.5,16.0,29.72,SSE,157,8.0,13.0,19,0.00,,,0.00,weatherlink.com 1.10,2013-03-08 04:25:00,
2013-03-07 21:40:00,57.6,17.0,29.73,South,184,11.0,11.0,20,0.00,,,0.00,weatherlink.com 1.10,2013-03-08 04:40:00,
2013-03-07 21:55:00,56.9,16.0,29.73,SW,222,0.0,15.0,20,0.00,,,0.00,weatherlink.com 1.10,2013-03-08 04:55:00,
2013-03-07 22:10:00,55.6,17.0,29.74,South,189,11.0,13.0,22,0.00,,,0.00,weatherlink.com 1.10,2013-03-08 05:10:00,
2013-03-07 22:25:00,54.6,16.0,29.75,South,175,4.0,11.0,22,0.00,,,0.00,weatherlink.com 1.10,2013-03-08 05:25:00,
2013-03-07 22:40:00,53.6,16.0,29.75,SSW,201,3.0,8.0,23,0.00,,,0.00,weatherlink.com 1.10,2013-03-08 05:40:00,
2013-03-07 22:55:00,52.3,16.0,29.75,South,171,5.0,9.0,24,0.00,,,0.00,weatherlink.com 1.10,2013-03-08 05:55:00,
2013-03-07 23:10:00,52.6,17.0,29.76,South,181,5.0,10.0,24,0.00,,,0.00,weatherlink.com 1.10,2013-03-08 06:10:00,
2013-03-07 23:25:00,52.0,16.0,29.77,South,184,1.0,7.0,24,0.00,,,0.00,weatherlink.com 1.10,2013-03-08 06:25:00,
2013-03-07 23:40:00,51.9,16.0,29.78,SSE,163,5.0,9.0,24,0.00,,,0.00,weatherlink.com 1.10,2013-03-08 06:40:00,
2013-03-07 23:55:00,51.9,15.0,29.78,South,172,4.0,8.0,23,0.00,,,0.00,weatherlink.com 1.10,2013-03-08 06:55:00,